Year,Month,Day,Hour,Minute,Value (Times are PST for temperature in C)
2017,06,25,00,00,18.80
2017,06,25,00,01,18.80
2017,06,25,00,02,18.90
2017,06,25,00,03,18.90
2017,06,25,00,04,18.90
2017,06,25,00,05,18.90
2017,06,25,00,06,18.90
2017,06,25,00,07,18.90
2017,06,25,00,08,18.90
2017,06,25,00,09,18.90
2017,06,25,00,10,18.90
2017,06,25,00,11,18.90
2017,06,25,00,12,18.90
2017,06,25,00,13,18.90
2017,06,25,00,14,18.80
2017,06,25,00,15,18.80
2017,06,25,00,16,18.80
2017,06,25,00,17,18.70
2017,06,25,00,18,18.70
2017,06,25,00,19,18.70
2017,06,25,00,20,18.70
2017,06,25,00,21,18.70
2017,06,25,00,22,18.70
2017,06,25,00,23,18.70
2017,06,25,00,24,18.70
2017,06,25,00,25,18.70
2017,06,25,00,26,18.60
2017,06,25,00,27,18.60
2017,06,25,00,28,18.60
2017,06,25,00,29,18.60
2017,06,25,00,30,18.50
2017,06,25,00,31,18.50
2017,06,25,00,32,18.50
2017,06,25,00,33,18.40
2017,06,25,00,34,18.40
2017,06,25,00,35,18.40
2017,06,25,00,36,18.30
2017,06,25,00,37,18.30
2017,06,25,00,38,18.30
2017,06,25,00,39,18.30
2017,06,25,00,40,18.20
2017,06,25,00,41,18.20
2017,06,25,00,42,18.20
2017,06,25,00,43,18.20
2017,06,25,00,44,18.10
2017,06,25,00,45,18.10
2017,06,25,00,46,18.10
2017,06,25,00,47,18.10
2017,06,25,00,48,18.10
2017,06,25,00,49,18.00
2017,06,25,00,50,18.00
2017,06,25,00,51,18.00
2017,06,25,00,52,17.90
2017,06,25,00,53,17.90
2017,06,25,00,54,17.90
2017,06,25,00,55,17.80
2017,06,25,00,56,17.80
2017,06,25,00,57,17.80
2017,06,25,00,58,17.70
2017,06,25,00,59,17.70
2017,06,25,01,00,17.70
2017,06,25,01,01,17.60
2017,06,25,01,02,17.60
2017,06,25,01,03,17.60
2017,06,25,01,04,17.60
2017,06,25,01,05,17.50
2017,06,25,01,06,17.50
2017,06,25,01,07,17.50
2017,06,25,01,08,17.40
2017,06,25,01,09,17.40
2017,06,25,01,10,17.40
2017,06,25,01,11,17.40
2017,06,25,01,12,17.40
2017,06,25,01,13,17.30
2017,06,25,01,14,17.30
2017,06,25,01,15,17.20
2017,06,25,01,16,17.20
2017,06,25,01,17,17.10
2017,06,25,01,18,17.00
2017,06,25,01,19,17.00
2017,06,25,01,20,16.90
2017,06,25,01,21,16.90
2017,06,25,01,22,16.90
2017,06,25,01,23,16.80
2017,06,25,01,24,16.80
2017,06,25,01,25,16.80
2017,06,25,01,26,16.70
2017,06,25,01,27,16.70
2017,06,25,01,28,16.70
2017,06,25,01,29,16.70
2017,06,25,01,30,16.60
2017,06,25,01,31,16.60
2017,06,25,01,32,16.60
2017,06,25,01,33,16.60
2017,06,25,01,34,16.70
2017,06,25,01,35,16.70
2017,06,25,01,36,16.70
2017,06,25,01,37,16.70
2017,06,25,01,38,16.70
2017,06,25,01,39,16.80
2017,06,25,01,40,16.80
2017,06,25,01,41,16.70
2017,06,25,01,42,16.70
2017,06,25,01,43,16.70
2017,06,25,01,44,16.60
2017,06,25,01,45,16.60
2017,06,25,01,46,16.60
2017,06,25,01,47,16.50
2017,06,25,01,48,16.40
2017,06,25,01,49,16.40
2017,06,25,01,50,16.30
2017,06,25,01,51,16.20
2017,06,25,01,52,16.20
2017,06,25,01,53,16.20
2017,06,25,01,54,16.10
2017,06,25,01,55,16.10
2017,06,25,01,56,16.10
2017,06,25,01,57,16.10
2017,06,25,01,58,16.00
2017,06,25,01,59,15.90
2017,06,25,02,00,15.90
2017,06,25,02,01,15.80
2017,06,25,02,02,15.80
2017,06,25,02,03,15.80
2017,06,25,02,04,15.70
2017,06,25,02,05,15.70
2017,06,25,02,06,15.60
2017,06,25,02,07,15.60
2017,06,25,02,08,15.60
2017,06,25,02,09,15.60
2017,06,25,02,10,15.60
2017,06,25,02,11,15.60
2017,06,25,02,12,15.60
2017,06,25,02,13,15.60
2017,06,25,02,14,15.60
2017,06,25,02,15,15.60
2017,06,25,02,16,15.60
2017,06,25,02,17,15.60
2017,06,25,02,18,15.60
2017,06,25,02,19,15.70
2017,06,25,02,20,15.70
2017,06,25,02,21,15.70
2017,06,25,02,22,15.70
2017,06,25,02,23,15.70
2017,06,25,02,24,15.60
2017,06,25,02,25,15.70
2017,06,25,02,26,15.70
2017,06,25,02,27,15.70
2017,06,25,02,28,15.70
2017,06,25,02,29,15.70
2017,06,25,02,30,15.60
2017,06,25,02,31,15.60
2017,06,25,02,32,15.60
2017,06,25,02,33,15.60
2017,06,25,02,34,15.60
2017,06,25,02,35,15.60
2017,06,25,02,36,15.60
2017,06,25,02,37,15.70
2017,06,25,02,38,15.70
2017,06,25,02,39,15.70
2017,06,25,02,40,15.70
2017,06,25,02,41,15.70
2017,06,25,02,42,15.70
2017,06,25,02,43,15.70
2017,06,25,02,44,15.70
2017,06,25,02,45,15.70
2017,06,25,02,46,15.70
2017,06,25,02,47,15.70
2017,06,25,02,48,15.70
2017,06,25,02,49,15.60
2017,06,25,02,50,15.60
2017,06,25,02,51,15.60
2017,06,25,02,52,15.60
2017,06,25,02,53,15.60
2017,06,25,02,54,15.60
2017,06,25,02,55,15.60
2017,06,25,02,56,15.60
2017,06,25,02,57,15.60
2017,06,25,02,58,15.60
2017,06,25,02,59,15.60
2017,06,25,03,00,15.60
2017,06,25,03,01,15.50
2017,06,25,03,02,15.50
2017,06,25,03,03,15.50
2017,06,25,03,04,15.50
2017,06,25,03,05,15.50
2017,06,25,03,06,15.50
2017,06,25,03,07,15.50
2017,06,25,03,08,15.40
2017,06,25,03,09,15.40
2017,06,25,03,10,15.40
2017,06,25,03,11,15.40
2017,06,25,03,12,15.40
2017,06,25,03,13,15.40
2017,06,25,03,14,15.40
2017,06,25,03,15,15.40
2017,06,25,03,16,15.30
2017,06,25,03,17,15.30
2017,06,25,03,18,15.30
2017,06,25,03,19,15.30
2017,06,25,03,20,15.30
2017,06,25,03,21,15.30
2017,06,25,03,22,15.20
2017,06,25,03,23,15.20
2017,06,25,03,24,15.20
2017,06,25,03,25,15.20
2017,06,25,03,26,15.20
2017,06,25,03,27,15.20
2017,06,25,03,28,15.20
2017,06,25,03,29,15.10
2017,06,25,03,30,15.10
2017,06,25,03,31,15.10
2017,06,25,03,32,15.10
2017,06,25,03,33,15.10
2017,06,25,03,34,15.10
2017,06,25,03,35,15.10
2017,06,25,03,36,15.00
2017,06,25,03,37,15.00
2017,06,25,03,38,15.00
2017,06,25,03,39,14.90
2017,06,25,03,40,14.90
2017,06,25,03,41,14.90
2017,06,25,03,42,14.90
2017,06,25,03,43,14.90
2017,06,25,03,44,14.90
2017,06,25,03,45,14.90
2017,06,25,03,46,14.80
2017,06,25,03,47,14.80
2017,06,25,03,48,14.80
2017,06,25,03,49,14.80
2017,06,25,03,50,14.80
2017,06,25,03,51,14.80
2017,06,25,03,52,14.80
2017,06,25,03,53,14.80
2017,06,25,03,54,14.70
2017,06,25,03,55,14.70
2017,06,25,03,56,14.70
2017,06,25,03,57,14.80
2017,06,25,03,58,14.70
2017,06,25,03,59,14.70
2017,06,25,04,00,14.70
2017,06,25,04,01,14.70
2017,06,25,04,02,14.70
2017,06,25,04,03,14.70
2017,06,25,04,04,14.70
2017,06,25,04,05,14.70
2017,06,25,04,06,14.70
2017,06,25,04,07,14.60
2017,06,25,04,08,14.60
2017,06,25,04,09,14.60
2017,06,25,04,10,14.60
2017,06,25,04,11,14.60
2017,06,25,04,12,14.50
2017,06,25,04,13,14.50
2017,06,25,04,14,14.50
2017,06,25,04,15,14.50
2017,06,25,04,16,14.50
2017,06,25,04,17,14.50
2017,06,25,04,18,14.50
2017,06,25,04,19,14.50
2017,06,25,04,20,14.50
2017,06,25,04,21,14.40
2017,06,25,04,22,14.40
2017,06,25,04,23,14.40
2017,06,25,04,24,14.40
2017,06,25,04,25,14.30
2017,06,25,04,26,14.30
2017,06,25,04,27,14.30
2017,06,25,04,28,14.30
2017,06,25,04,29,14.30
2017,06,25,04,30,14.30
2017,06,25,04,31,14.30
2017,06,25,04,32,14.20
2017,06,25,04,33,14.20
2017,06,25,04,34,14.20
2017,06,25,04,35,14.20
2017,06,25,04,36,14.20
2017,06,25,04,37,14.10
2017,06,25,04,38,14.10
2017,06,25,04,39,14.10
2017,06,25,04,40,14.00
2017,06,25,04,41,14.00
2017,06,25,04,42,14.00
2017,06,25,04,43,13.90
2017,06,25,04,44,13.90
2017,06,25,04,45,13.90
2017,06,25,04,46,13.90
2017,06,25,04,47,13.90
2017,06,25,04,48,13.90
2017,06,25,04,49,13.90
2017,06,25,04,50,13.90
2017,06,25,04,51,13.90
2017,06,25,04,52,13.90
2017,06,25,04,53,13.90
2017,06,25,04,54,13.90
2017,06,25,04,55,13.90
2017,06,25,04,56,13.90
2017,06,25,04,57,13.90
2017,06,25,04,58,14.00
2017,06,25,04,59,14.00
2017,06,25,05,00,14.00
2017,06,25,05,01,13.90
2017,06,25,05,02,13.90
2017,06,25,05,03,13.90
2017,06,25,05,04,13.90
2017,06,25,05,05,13.90
2017,06,25,05,06,13.90
2017,06,25,05,07,14.00
2017,06,25,05,08,14.00
2017,06,25,05,09,14.00
2017,06,25,05,10,14.00
2017,06,25,05,11,13.90
2017,06,25,05,12,13.90
2017,06,25,05,13,13.90
2017,06,25,05,14,13.90
2017,06,25,05,15,13.90
2017,06,25,05,16,13.90
2017,06,25,05,17,13.90
2017,06,25,05,18,13.90
2017,06,25,05,19,13.90
2017,06,25,05,20,13.90
2017,06,25,05,21,13.90
2017,06,25,05,22,13.80
2017,06,25,05,23,13.80
2017,06,25,05,24,13.80
2017,06,25,05,25,13.80
2017,06,25,05,26,13.80
2017,06,25,05,27,13.80
2017,06,25,05,28,13.80
2017,06,25,05,29,13.70
2017,06,25,05,30,13.70
2017,06,25,05,31,13.70
2017,06,25,05,32,13.70
2017,06,25,05,33,13.70
2017,06,25,05,34,13.80
2017,06,25,05,35,13.80
2017,06,25,05,36,13.80
2017,06,25,05,37,13.80
2017,06,25,05,38,13.80
2017,06,25,05,39,13.80
2017,06,25,05,40,13.80
2017,06,25,05,41,13.80
2017,06,25,05,42,13.80
2017,06,25,05,43,13.90
2017,06,25,05,44,13.90
2017,06,25,05,45,13.90
2017,06,25,05,46,14.00
2017,06,25,05,47,14.00
2017,06,25,05,48,14.00
2017,06,25,05,49,14.10
2017,06,25,05,50,14.10
2017,06,25,05,51,14.10
2017,06,25,05,52,14.10
2017,06,25,05,53,14.20
2017,06,25,05,54,14.20
2017,06,25,05,55,14.20
2017,06,25,05,56,14.30
2017,06,25,05,57,14.30
2017,06,25,05,58,14.40
2017,06,25,05,59,14.40
2017,06,25,06,00,14.50
2017,06,25,06,01,14.60
2017,06,25,06,02,14.60
2017,06,25,06,03,14.60
2017,06,25,06,04,14.70
2017,06,25,06,05,14.70
2017,06,25,06,06,14.80
2017,06,25,06,07,14.80
2017,06,25,06,08,14.90
2017,06,25,06,09,14.90
2017,06,25,06,10,15.00
2017,06,25,06,11,15.10
2017,06,25,06,12,15.10
2017,06,25,06,13,15.20
2017,06,25,06,14,15.30
2017,06,25,06,15,15.30
2017,06,25,06,16,15.40
2017,06,25,06,17,15.40
2017,06,25,06,18,15.50
2017,06,25,06,19,15.50
2017,06,25,06,20,15.60
2017,06,25,06,21,15.60
2017,06,25,06,22,15.70
2017,06,25,06,23,15.70
2017,06,25,06,24,15.70
2017,06,25,06,25,15.80
2017,06,25,06,26,15.80
2017,06,25,06,27,15.90
2017,06,25,06,28,16.00
2017,06,25,06,29,16.00
2017,06,25,06,30,16.10
2017,06,25,06,31,16.20
2017,06,25,06,32,16.20
2017,06,25,06,33,16.30
2017,06,25,06,34,16.30
2017,06,25,06,35,16.30
2017,06,25,06,36,16.40
2017,06,25,06,37,16.50
2017,06,25,06,38,16.50
2017,06,25,06,39,16.60
2017,06,25,06,40,16.60
2017,06,25,06,41,16.70
2017,06,25,06,42,16.70
2017,06,25,06,43,16.80
2017,06,25,06,44,16.80
2017,06,25,06,45,16.90
2017,06,25,06,46,16.90
2017,06,25,06,47,17.00
2017,06,25,06,48,17.10
2017,06,25,06,49,17.20
2017,06,25,06,50,17.20
2017,06,25,06,51,17.30
2017,06,25,06,52,17.40
2017,06,25,06,53,17.40
2017,06,25,06,54,17.50
2017,06,25,06,55,17.60
2017,06,25,06,56,17.60
2017,06,25,06,57,17.70
2017,06,25,06,58,17.70
2017,06,25,06,59,17.80
2017,06,25,07,00,17.80
2017,06,25,07,01,17.80
2017,06,25,07,02,17.90
2017,06,25,07,03,17.90
2017,06,25,07,04,17.90
2017,06,25,07,05,18.00
2017,06,25,07,06,18.00
2017,06,25,07,07,18.10
2017,06,25,07,08,18.10
2017,06,25,07,09,18.20
2017,06,25,07,10,18.20
2017,06,25,07,11,18.30
2017,06,25,07,12,18.30
2017,06,25,07,13,18.40
2017,06,25,07,14,18.50
2017,06,25,07,15,18.50
2017,06,25,07,16,18.60
2017,06,25,07,17,18.70
2017,06,25,07,18,18.70
2017,06,25,07,19,18.80
2017,06,25,07,20,18.80
2017,06,25,07,21,18.90
2017,06,25,07,22,18.90
2017,06,25,07,23,19.00
2017,06,25,07,24,19.10
2017,06,25,07,25,19.10
2017,06,25,07,26,19.20
2017,06,25,07,27,19.20
2017,06,25,07,28,19.30
2017,06,25,07,29,19.40
2017,06,25,07,30,19.50
2017,06,25,07,31,19.50
2017,06,25,07,32,19.60
2017,06,25,07,33,19.70
2017,06,25,07,34,19.80
2017,06,25,07,35,19.90
2017,06,25,07,36,20.00
2017,06,25,07,37,20.20
2017,06,25,07,38,20.20
2017,06,25,07,39,20.30
2017,06,25,07,40,20.50
2017,06,25,07,41,20.60
2017,06,25,07,42,20.80
2017,06,25,07,43,20.90
2017,06,25,07,44,20.90
2017,06,25,07,45,20.90
2017,06,25,07,46,20.90
2017,06,25,07,47,20.90
2017,06,25,07,48,20.90
2017,06,25,07,49,20.90
2017,06,25,07,50,20.90
2017,06,25,07,51,20.90
2017,06,25,07,52,20.90
2017,06,25,07,53,20.90
2017,06,25,07,54,20.90
2017,06,25,07,55,20.80
2017,06,25,07,56,20.70
2017,06,25,07,57,20.60
2017,06,25,07,58,20.50
2017,06,25,07,59,20.50
2017,06,25,08,00,20.50
2017,06,25,08,01,20.50
2017,06,25,08,02,20.50
2017,06,25,08,03,20.50
2017,06,25,08,04,20.60
2017,06,25,08,05,20.50
2017,06,25,08,06,20.50
2017,06,25,08,07,20.40
2017,06,25,08,08,20.40
2017,06,25,08,09,20.40
2017,06,25,08,10,20.40
2017,06,25,08,11,20.50
2017,06,25,08,12,20.50
2017,06,25,08,13,20.60
2017,06,25,08,14,20.60
2017,06,25,08,15,20.70
2017,06,25,08,16,20.70
2017,06,25,08,17,20.70
2017,06,25,08,18,20.80
2017,06,25,08,19,20.80
2017,06,25,08,20,20.80
2017,06,25,08,21,20.80
2017,06,25,08,22,20.90
2017,06,25,08,23,20.90
2017,06,25,08,24,20.90
2017,06,25,08,25,20.90
2017,06,25,08,26,20.90
2017,06,25,08,27,20.80
2017,06,25,08,28,20.80
2017,06,25,08,29,20.70
2017,06,25,08,30,20.70
2017,06,25,08,31,20.70
2017,06,25,08,32,20.70
2017,06,25,08,33,20.70
2017,06,25,08,34,20.70
2017,06,25,08,35,20.70
2017,06,25,08,36,20.80
2017,06,25,08,37,20.90
2017,06,25,08,38,21.00
2017,06,25,08,39,21.00
2017,06,25,08,40,21.10
2017,06,25,08,41,21.10
2017,06,25,08,42,21.00
2017,06,25,08,43,21.00
2017,06,25,08,44,21.00
2017,06,25,08,45,20.90
2017,06,25,08,46,21.00
2017,06,25,08,47,21.00
2017,06,25,08,48,21.10
2017,06,25,08,49,21.10
2017,06,25,08,50,21.20
2017,06,25,08,51,21.20
2017,06,25,08,52,21.20
2017,06,25,08,53,21.20
2017,06,25,08,54,21.30
2017,06,25,08,55,21.30
2017,06,25,08,56,21.30
2017,06,25,08,57,21.30
2017,06,25,08,58,21.30
2017,06,25,08,59,21.30
2017,06,25,09,00,21.40
2017,06,25,09,01,21.40
2017,06,25,09,02,21.50
2017,06,25,09,03,21.50
2017,06,25,09,04,21.60
2017,06,25,09,05,21.60
2017,06,25,09,06,21.60
2017,06,25,09,07,21.70
2017,06,25,09,08,21.70
2017,06,25,09,09,21.70
2017,06,25,09,10,21.70
2017,06,25,09,11,21.70
2017,06,25,09,12,21.80
2017,06,25,09,13,21.80
2017,06,25,09,14,21.90
2017,06,25,09,15,21.90
2017,06,25,09,16,21.90
2017,06,25,09,17,22.00
2017,06,25,09,18,22.00
2017,06,25,09,19,22.00
2017,06,25,09,20,22.00
2017,06,25,09,21,22.00
2017,06,25,09,22,22.00
2017,06,25,09,23,22.00
2017,06,25,09,24,21.90
2017,06,25,09,25,21.90
2017,06,25,09,26,21.90
2017,06,25,09,27,21.90
2017,06,25,09,28,21.90
2017,06,25,09,29,21.80
2017,06,25,09,30,21.80
2017,06,25,09,31,21.80
2017,06,25,09,32,21.80
2017,06,25,09,33,21.80
2017,06,25,09,34,21.80
2017,06,25,09,35,21.80
2017,06,25,09,36,21.80
2017,06,25,09,37,21.80
2017,06,25,09,38,21.70
2017,06,25,09,39,21.70
2017,06,25,09,40,21.80
2017,06,25,09,41,21.80
2017,06,25,09,42,21.70
2017,06,25,09,43,21.70
2017,06,25,09,44,21.80
2017,06,25,09,45,21.80
2017,06,25,09,46,21.80
2017,06,25,09,47,21.90
2017,06,25,09,48,21.90
2017,06,25,09,49,22.00
2017,06,25,09,50,22.10
2017,06,25,09,51,22.10
2017,06,25,09,52,22.10
2017,06,25,09,53,22.10
2017,06,25,09,54,22.20
2017,06,25,09,55,22.20
2017,06,25,09,56,22.20
2017,06,25,09,57,22.30
2017,06,25,09,58,22.40
2017,06,25,09,59,22.50
2017,06,25,10,00,22.60
2017,06,25,10,01,22.60
2017,06,25,10,02,22.70
2017,06,25,10,03,22.70
2017,06,25,10,04,22.70
2017,06,25,10,05,22.80
2017,06,25,10,06,22.80
2017,06,25,10,07,22.90
2017,06,25,10,08,22.90
2017,06,25,10,09,23.00
2017,06,25,10,10,23.00
2017,06,25,10,11,23.10
2017,06,25,10,12,23.10
2017,06,25,10,13,23.00
2017,06,25,10,14,22.90
2017,06,25,10,15,22.90
2017,06,25,10,16,22.80
2017,06,25,10,17,22.80
2017,06,25,10,18,22.80
2017,06,25,10,19,22.80
2017,06,25,10,20,22.80
2017,06,25,10,21,22.80
2017,06,25,10,22,22.80
2017,06,25,10,23,22.80
2017,06,25,10,24,22.70
2017,06,25,10,25,22.70
2017,06,25,10,26,22.80
2017,06,25,10,27,22.80
2017,06,25,10,28,22.80
2017,06,25,10,29,22.80
2017,06,25,10,30,22.80
2017,06,25,10,31,22.80
2017,06,25,10,32,22.90
2017,06,25,10,33,23.00
2017,06,25,10,34,23.00
2017,06,25,10,35,23.10
2017,06,25,10,36,23.10
2017,06,25,10,37,23.20
2017,06,25,10,38,23.30
2017,06,25,10,39,23.30
2017,06,25,10,40,23.40
2017,06,25,10,41,23.60
2017,06,25,10,42,23.60
2017,06,25,10,43,23.70
2017,06,25,10,44,23.60
2017,06,25,10,45,23.60
2017,06,25,10,46,23.60
2017,06,25,10,47,23.60
2017,06,25,10,48,23.50
2017,06,25,10,49,23.50
2017,06,25,10,50,23.60
2017,06,25,10,51,23.60
2017,06,25,10,52,23.60
2017,06,25,10,53,23.60
2017,06,25,10,54,23.70
2017,06,25,10,55,23.70
2017,06,25,10,56,23.70
2017,06,25,10,57,23.60
2017,06,25,10,58,23.60
2017,06,25,10,59,23.50
2017,06,25,11,00,23.50
2017,06,25,11,01,23.50
2017,06,25,11,02,23.60
2017,06,25,11,03,23.60
2017,06,25,11,04,23.70
2017,06,25,11,05,23.80
2017,06,25,11,06,23.70
2017,06,25,11,07,23.70
2017,06,25,11,08,23.60
2017,06,25,11,09,23.60
2017,06,25,11,10,23.70
2017,06,25,11,11,23.70
2017,06,25,11,12,23.70
2017,06,25,11,13,23.70
2017,06,25,11,14,23.70
2017,06,25,11,15,23.70
2017,06,25,11,16,23.80
2017,06,25,11,17,23.80
2017,06,25,11,18,23.90
2017,06,25,11,19,23.90
2017,06,25,11,20,23.90
2017,06,25,11,21,24.00
2017,06,25,11,22,24.00
2017,06,25,11,23,24.10
2017,06,25,11,24,24.20
2017,06,25,11,25,24.40
2017,06,25,11,26,24.50
2017,06,25,11,27,24.50
2017,06,25,11,28,24.40
2017,06,25,11,29,24.40
2017,06,25,11,30,24.50
2017,06,25,11,31,24.50
2017,06,25,11,32,24.60
2017,06,25,11,33,24.60
2017,06,25,11,34,24.70
2017,06,25,11,35,24.60
2017,06,25,11,36,24.60
2017,06,25,11,37,24.50
2017,06,25,11,38,24.50
2017,06,25,11,39,24.50
2017,06,25,11,40,24.60
2017,06,25,11,41,24.70
2017,06,25,11,42,24.70
2017,06,25,11,43,24.80
2017,06,25,11,44,24.90
2017,06,25,11,45,25.00
2017,06,25,11,46,24.90
2017,06,25,11,47,24.90
2017,06,25,11,48,24.80
2017,06,25,11,49,24.80
2017,06,25,11,50,24.70
2017,06,25,11,51,24.70
2017,06,25,11,52,24.70
2017,06,25,11,53,24.70
2017,06,25,11,54,24.70
2017,06,25,11,55,24.70
2017,06,25,11,56,24.70
2017,06,25,11,57,24.70
2017,06,25,11,58,24.60
2017,06,25,11,59,24.60
2017,06,25,12,00,24.60
2017,06,25,12,01,24.70
2017,06,25,12,02,24.60
2017,06,25,12,03,24.50
2017,06,25,12,04,24.40
2017,06,25,12,05,24.30
2017,06,25,12,06,24.20
2017,06,25,12,07,24.20
2017,06,25,12,08,24.20
2017,06,25,12,09,24.20
2017,06,25,12,10,24.10
2017,06,25,12,11,24.10
2017,06,25,12,12,24.10
2017,06,25,12,13,24.10
2017,06,25,12,14,24.10
2017,06,25,12,15,24.10
2017,06,25,12,16,24.10
2017,06,25,12,17,24.00
2017,06,25,12,18,24.00
2017,06,25,12,19,24.00
2017,06,25,12,20,24.10
2017,06,25,12,21,24.10
2017,06,25,12,22,24.30
2017,06,25,12,23,24.30
2017,06,25,12,24,24.40
2017,06,25,12,25,24.50
2017,06,25,12,26,24.50
2017,06,25,12,27,24.50
2017,06,25,12,28,24.50
2017,06,25,12,29,24.40
2017,06,25,12,30,24.40
2017,06,25,12,31,24.30
2017,06,25,12,32,24.20
2017,06,25,12,33,24.20
2017,06,25,12,34,24.10
2017,06,25,12,35,24.10
2017,06,25,12,36,24.10
2017,06,25,12,37,24.20
2017,06,25,12,38,24.30
2017,06,25,12,39,24.40
2017,06,25,12,40,24.50
2017,06,25,12,41,24.40
2017,06,25,12,42,24.40
2017,06,25,12,43,24.40
2017,06,25,12,44,24.50
2017,06,25,12,45,24.50
2017,06,25,12,46,24.50
2017,06,25,12,47,24.60
2017,06,25,12,48,24.70
2017,06,25,12,49,24.80
2017,06,25,12,50,24.80
2017,06,25,12,51,25.00
2017,06,25,12,52,25.20
2017,06,25,12,53,25.40
2017,06,25,12,54,25.60
2017,06,25,12,55,25.70
2017,06,25,12,56,25.70
2017,06,25,12,57,25.70
2017,06,25,12,58,25.70
2017,06,25,12,59,25.60
2017,06,25,13,00,25.60
2017,06,25,13,01,25.60
2017,06,25,13,02,25.60
2017,06,25,13,03,25.60
2017,06,25,13,04,25.70
2017,06,25,13,05,25.80
2017,06,25,13,06,25.80
2017,06,25,13,07,25.90
2017,06,25,13,08,25.90
2017,06,25,13,09,26.00
2017,06,25,13,10,26.10
2017,06,25,13,11,26.20
2017,06,25,13,12,26.20
2017,06,25,13,13,26.30
2017,06,25,13,14,26.40
2017,06,25,13,15,26.50
2017,06,25,13,16,26.60
2017,06,25,13,17,26.70
2017,06,25,13,18,26.70
2017,06,25,13,19,26.80
2017,06,25,13,20,26.80
2017,06,25,13,21,26.80
2017,06,25,13,22,26.80
2017,06,25,13,23,26.80
2017,06,25,13,24,26.70
2017,06,25,13,25,26.70
2017,06,25,13,26,26.60
2017,06,25,13,27,26.50
2017,06,25,13,28,26.40
2017,06,25,13,29,26.40
2017,06,25,13,30,26.40
2017,06,25,13,31,26.50
2017,06,25,13,32,26.60
2017,06,25,13,33,26.60
2017,06,25,13,34,26.70
2017,06,25,13,35,26.80
2017,06,25,13,36,26.90
2017,06,25,13,37,26.90
2017,06,25,13,38,27.00
2017,06,25,13,39,27.00
2017,06,25,13,40,27.10
2017,06,25,13,41,27.30
2017,06,25,13,42,27.50
2017,06,25,13,43,27.60
2017,06,25,13,44,27.70
2017,06,25,13,45,27.60
2017,06,25,13,46,27.60
2017,06,25,13,47,27.50
2017,06,25,13,48,27.50
2017,06,25,13,49,27.60
2017,06,25,13,50,27.70
2017,06,25,13,51,27.70
2017,06,25,13,52,27.70
2017,06,25,13,53,27.80
2017,06,25,13,54,27.90
2017,06,25,13,55,28.00
2017,06,25,13,56,28.00
2017,06,25,13,57,28.10
2017,06,25,13,58,28.10
2017,06,25,13,59,28.00
2017,06,25,14,00,27.90
2017,06,25,14,01,27.70
2017,06,25,14,02,27.60
2017,06,25,14,03,27.60
2017,06,25,14,04,27.60
2017,06,25,14,05,27.70
2017,06,25,14,06,27.70
2017,06,25,14,07,27.70
2017,06,25,14,08,27.70
2017,06,25,14,09,27.70
2017,06,25,14,10,27.80
2017,06,25,14,11,27.90
2017,06,25,14,12,27.80
2017,06,25,14,13,27.70
2017,06,25,14,14,27.50
2017,06,25,14,15,27.40
2017,06,25,14,16,27.30
2017,06,25,14,17,27.20
2017,06,25,14,18,27.20
2017,06,25,14,19,27.20
2017,06,25,14,20,27.20
2017,06,25,14,21,27.20
2017,06,25,14,22,27.10
2017,06,25,14,23,27.10
2017,06,25,14,24,27.20
2017,06,25,14,25,27.20
2017,06,25,14,26,27.20
2017,06,25,14,27,27.20
2017,06,25,14,28,27.10
2017,06,25,14,29,27.00
2017,06,25,14,30,26.90
2017,06,25,14,31,26.80
2017,06,25,14,32,26.70
2017,06,25,14,33,26.60
2017,06,25,14,34,26.60
2017,06,25,14,35,26.60
2017,06,25,14,36,26.50
2017,06,25,14,37,26.40
2017,06,25,14,38,26.30
2017,06,25,14,39,26.20
2017,06,25,14,40,26.10
2017,06,25,14,41,25.90
2017,06,25,14,42,25.80
2017,06,25,14,43,25.80
2017,06,25,14,44,25.70
2017,06,25,14,45,25.80
2017,06,25,14,46,25.80
2017,06,25,14,47,25.80
2017,06,25,14,48,25.70
2017,06,25,14,49,25.60
2017,06,25,14,50,25.50
2017,06,25,14,51,25.50
2017,06,25,14,52,25.40
2017,06,25,14,53,25.30
2017,06,25,14,54,25.20
2017,06,25,14,55,25.20
2017,06,25,14,56,25.10
2017,06,25,14,57,25.00
2017,06,25,14,58,25.00
2017,06,25,14,59,25.00
2017,06,25,15,00,25.00
2017,06,25,15,01,24.90
2017,06,25,15,02,24.80
2017,06,25,15,03,24.80
2017,06,25,15,04,24.80
2017,06,25,15,05,24.80
2017,06,25,15,06,24.60
2017,06,25,15,07,24.60
2017,06,25,15,08,24.50
2017,06,25,15,09,24.50
2017,06,25,15,10,24.50
2017,06,25,15,11,24.60
2017,06,25,15,12,24.60
2017,06,25,15,13,24.70
2017,06,25,15,14,24.70
2017,06,25,15,15,24.70
2017,06,25,15,16,24.60
2017,06,25,15,17,24.70
2017,06,25,15,18,24.70
2017,06,25,15,19,24.70
2017,06,25,15,20,24.70
2017,06,25,15,21,24.80
2017,06,25,15,22,24.80
2017,06,25,15,23,24.80
2017,06,25,15,24,24.80
2017,06,25,15,25,24.90
2017,06,25,15,26,24.90
2017,06,25,15,27,25.00
2017,06,25,15,28,25.10
2017,06,25,15,29,25.20
2017,06,25,15,30,25.20
2017,06,25,15,31,25.30
2017,06,25,15,32,25.20
2017,06,25,15,33,25.20
2017,06,25,15,34,25.20
2017,06,25,15,35,25.20
2017,06,25,15,36,25.20
2017,06,25,15,37,25.20
2017,06,25,15,38,25.20
2017,06,25,15,39,25.30
2017,06,25,15,40,25.30
2017,06,25,15,41,25.30
2017,06,25,15,42,25.20
2017,06,25,15,43,25.20
2017,06,25,15,44,25.10
2017,06,25,15,45,25.10
2017,06,25,15,46,25.10
2017,06,25,15,47,25.10
2017,06,25,15,48,25.10
2017,06,25,15,49,25.10
2017,06,25,15,50,25.10
2017,06,25,15,51,25.10
2017,06,25,15,52,25.10
2017,06,25,15,53,25.10
2017,06,25,15,54,25.10
2017,06,25,15,55,25.10
2017,06,25,15,56,25.10
2017,06,25,15,57,25.10
2017,06,25,15,58,25.10
2017,06,25,15,59,25.30
2017,06,25,16,00,25.40
2017,06,25,16,01,25.50
2017,06,25,16,02,25.60
2017,06,25,16,03,25.70
2017,06,25,16,04,25.80
2017,06,25,16,05,25.80
2017,06,25,16,06,25.80
2017,06,25,16,07,25.90
2017,06,25,16,08,25.90
2017,06,25,16,09,25.90
2017,06,25,16,10,25.90
2017,06,25,16,11,25.90
2017,06,25,16,12,25.90
2017,06,25,16,13,26.00
2017,06,25,16,14,26.10
2017,06,25,16,15,26.10
2017,06,25,16,16,26.20
2017,06,25,16,17,26.20
2017,06,25,16,18,26.20
2017,06,25,16,19,26.20
2017,06,25,16,20,26.30
2017,06,25,16,21,26.30
2017,06,25,16,22,26.30
2017,06,25,16,23,26.30
2017,06,25,16,24,26.30
2017,06,25,16,25,26.40
2017,06,25,16,26,26.40
2017,06,25,16,27,26.40
2017,06,25,16,28,26.30
2017,06,25,16,29,26.30
2017,06,25,16,30,26.30
2017,06,25,16,31,26.30
2017,06,25,16,32,26.40
2017,06,25,16,33,26.40
2017,06,25,16,34,26.50
2017,06,25,16,35,26.60
2017,06,25,16,36,26.70
2017,06,25,16,37,26.80
2017,06,25,16,38,26.80
2017,06,25,16,39,26.80
2017,06,25,16,40,26.80
2017,06,25,16,41,26.80
2017,06,25,16,42,26.80
2017,06,25,16,43,26.80
2017,06,25,16,44,26.80
2017,06,25,16,45,26.90
2017,06,25,16,46,26.90
2017,06,25,16,47,26.90
2017,06,25,16,48,26.90
2017,06,25,16,49,26.90
2017,06,25,16,50,26.80
2017,06,25,16,51,26.70
2017,06,25,16,52,26.70
2017,06,25,16,53,26.70
2017,06,25,16,54,26.70
2017,06,25,16,55,26.80
2017,06,25,16,56,26.80
2017,06,25,16,57,26.80
2017,06,25,16,58,26.90
2017,06,25,16,59,26.90
2017,06,25,17,00,27.00
2017,06,25,17,01,27.00
2017,06,25,17,02,27.10
2017,06,25,17,03,27.20
2017,06,25,17,04,27.30
2017,06,25,17,05,27.40
2017,06,25,17,06,27.40
2017,06,25,17,07,27.50
2017,06,25,17,08,27.60
2017,06,25,17,09,27.60
2017,06,25,17,10,27.70
2017,06,25,17,11,27.70
2017,06,25,17,12,27.80
2017,06,25,17,13,27.80
2017,06,25,17,14,27.80
2017,06,25,17,15,27.80
2017,06,25,17,16,27.80
2017,06,25,17,17,27.80
2017,06,25,17,18,27.80
2017,06,25,17,19,27.70